GW0914 Weather Reports


time (UTC)temp
C
wind
direction
speed
KPH
gust
KPH
rain 1hr
cm
rain 24hr
cm
rain mn
cm
humidity
%
barometer
mb
20260502233433 5 284 3.2 3.2 0.00 0.00 0.00 70 1013.7
20260502232930 5 266 1.6 1.6 0.00 0.00 0.00 70 1013.6
20260502232426 5 279 1.6 3.2 0.00 0.00 0.00 71 1013.7
20260502231923 5 281 1.6 3.2 0.00 0.00 0.00 69 1013.7
20260502231421 6 265 1.6 1.6 0.00 0.00 0.00 71 1013.6
20260502230919 6 259 0.0 0.0 0.00 0.00 0.00 72 1013.6
20260502230417 6 267 1.6 3.2 0.00 0.00 0.00 68 1013.7
20260502225915 6 290 3.2 3.2 0.00 0.00 0.00 69 1013.7
20260502225410 6 269 1.6 1.6 0.00 0.00 0.00 70 1013.7
20260502224907 6 297 1.6 3.2 0.00 0.00 0.00 69 1013.6
20260502224403 6 265 1.6 1.6 0.00 0.00 0.00 69 1013.9
20260502223900 6 109 1.6 3.2 0.00 0.00 0.00 67 1013.7
20260502223358 6 2 3.2 3.2 0.00 0.00 0.00 67 1013.7
20260502222856 6 288 1.6 3.2 0.00 0.00 0.00 67 1013.6
20260502222354 6 279 3.2 3.2 0.00 0.00 0.00 66 1013.5
20260502221849 6 287 3.2 3.2 0.00 0.00 0.00 67 1013.6
20260502221346 6 274 1.6 1.6 0.00 0.00 0.00 67 1013.5
20260502220843 6 4 4.8 4.8 0.00 0.00 0.00 67 1013.6
20260502220339 6 295 1.6 3.2 0.00 0.00 0.00 66 1013.6
20260502215835 6 276 1.6 1.6 0.00 0.00 0.00 66 1013.7
20260502215333 6 283 4.8 8.0 0.00 0.00 0.00 66 1013.3
20260502214829 6 270 1.6 1.6 0.00 0.00 0.00 69 1013.5
20260502214326 6 269 1.6 3.2 0.00 0.00 0.00 67 1013.6
20260502213824 6 311 1.6 3.2 0.00 0.00 0.00 71 1013.8
20260502213321 6 306 1.6 3.2 0.00 0.00 0.00 70 1013.5
20260502212820 6 318 4.8 4.8 0.00 0.00 0.00 69 1013.5
20260502212317 7 317 3.2 4.8 0.00 0.00 0.00 69 1013.3
20260502211815 6 308 4.8 4.8 0.00 0.00 0.00 72 1013.2
20260502211310 6 358 1.6 3.2 0.00 0.00 0.00 71 1013.2
20260502210808 7 318 1.6 1.6 0.00 0.00 0.00 70 1013.2
20260502210305 6 302 3.2 3.2 0.00 0.00 0.00 69 1013.2
20260502205802 6 303 6.4 8.0 0.00 0.00 0.00 65 1013.1
20260502205258 6 265 4.8 4.8 0.00 0.00 0.00 67 1013.0
20260502204755 6 321 3.2 3.2 0.00 0.00 0.00 67 1013.2
20260502204252 6 292 3.2 3.2 0.00 0.00 0.00 67 1013.1
20260502203749 7 303 8.0 9.7 0.00 0.00 0.00 65 1013.2
20260502203247 7 280 1.6 3.2 0.00 0.00 0.00 65 1013.2
20260502202742 7 310 4.8 4.8 0.00 0.00 0.00 63 1013.3
20260502202240 6 276 4.8 8.0 0.00 0.00 0.00 67 1013.2
20260502201738 6 276 4.8 4.8 0.00 0.00 0.00 66 1013.3
20260502201233 7 325 4.8 4.8 0.00 0.00 0.00 65 1013.2
20260502200730 7 304 4.8 4.8 0.00 0.00 0.00 69 1013.1
20260502200226 7 287 1.6 3.2 0.00 0.00 0.00 65 1013.5
20260502195725 7 317 8.0 9.7 0.00 0.00 0.00 65 1013.5
20260502195221 7 262 1.6 3.2 0.00 0.00 0.00 66 1013.3
20260502194717 7 312 4.8 4.8 0.00 0.00 0.00 66 1013.6
20260502194215 7 337 6.4 9.7 0.00 0.00 0.00 66 1013.5
20260502193710 7 323 6.4 8.0 0.00 0.00 0.00 67 1013.6
20260502193208 8 286 4.8 8.0 0.00 0.00 0.00 67 1013.5
20260502192703 7 297 4.8 4.8 0.00 0.00 0.00 68 1013.3
20260502192201 7 261 1.6 3.2 0.00 0.00 0.00 69 1013.3
20260502191657 7 279 3.2 4.8 0.00 0.00 0.00 71 1013.7
20260502191155 7 42 4.8 9.7 0.00 0.00 0.00 68 1013.6
20260502190652 7 309 3.2 3.2 0.00 0.00 0.00 69 1013.6
20260502190150 7 305 1.6 3.2 0.00 0.00 0.00 69 1013.7
20260502185644 6 319 3.2 3.2 0.00 0.00 0.00 71 1013.7
20260502185141 6 291 1.6 3.2 0.00 0.00 0.00 75 1013.8
20260502184637 6 280 1.6 1.6 0.00 0.00 0.00 73 1013.8
20260502184133 6 33 3.2 4.8 0.00 0.00 0.00 71 1013.8
20260502183630 6 289 3.2 3.2 0.00 0.00 0.00 65 1013.7
20260502183126 6 321 6.4 8.0 0.00 0.00 0.00 66 1013.7
20260502182621 6 298 4.8 4.8 0.00 0.00 0.00 66 1013.7
20260502182117 6 284 6.4 8.0 0.00 0.00 0.00 65 1013.8
20260502181615 6 323 4.8 4.8 0.00 0.00 0.00 68 1013.7
20260502181113 7 298 8.0 9.7 0.00 0.00 0.00 68 1013.8
20260502180610 8 270 1.6 1.6 0.00 0.00 0.00 63 1013.6
20260502180108 8 252 1.6 1.6 0.00 0.00 0.00 62 1013.7
20260502164013 6 306 3.2 3.2 0.00 0.00 0.00 67 1014.0
20260502163509 6 253 6.4 11.3 0.00 0.00 0.00 64 1014.0
20260502163006 6 275 4.8 4.8 0.00 0.00 0.00 66 1014.1
20260502162503 6 297 4.8 8.0 0.00 0.00 0.00 68 1014.0
20260502162000 6 302 3.2 3.2 0.00 0.00 0.00 71 1014.2
20260502161456 6 299 6.4 8.0 0.00 0.00 0.00 66 1014.1
20260502160955 6 325 6.4 8.0 0.00 0.00 0.00 70 1014.1
20260502160452 7 312 1.6 3.2 0.00 0.00 0.00 66 1014.1
20260502151941 6 294 4.8 4.8 0.00 0.00 0.00 72 1014.1
20260502151438 6 298 3.2 3.2 0.00 0.00 0.00 76 1014.1
20260502150935 6 298 9.7 12.9 0.00 0.00 0.00 72 1014.2
20260502150432 6 305 8.0 8.0 0.00 0.00 0.00 74 1014.1
20260502130318 3 279 4.8 4.8 0.00 0.00 0.00 83 1013.7
20260502123803 2 276 3.2 3.2 0.00 0.00 0.00 83 1013.5
20260502123300 2 294 6.4 8.0 0.00 0.00 0.00 84 1013.6
20260502122757 2 289 3.2 3.2 0.00 0.00 0.00 84 1013.5
20260502122253 2 333 3.2 4.8 0.00 0.00 0.00 85 1013.2
20260502121751 2 309 4.8 4.8 0.00 0.00 0.00 84 1013.2
20260502121249 2 313 4.8 4.8 0.00 0.00 0.00 84 1013.5
20260502120745 2 287 3.2 3.2 0.00 0.00 0.00 85 1013.2
20260502120242 1 313 3.2 3.2 0.00 0.00 0.00 83 1013.3
20260502115740 1 322 4.8 4.8 0.00 0.00 0.00 83 1013.2
20260502115237 1 331 3.2 3.2 0.00 0.00 0.00 84 1013.5
20260502114732 1 272 4.8 4.8 0.00 0.00 0.00 84 1013.3
20260502114230 1 302 4.8 4.8 0.00 0.00 0.00 84 1013.2
20260502113727 1 280 1.6 3.2 0.00 0.00 0.00 85 1013.3
20260502113224 1 265 4.8 4.8 0.00 0.00 0.00 85 1013.5
20260502112722 1 254 1.6 1.6 0.00 0.00 0.00 86 1013.2
20260502112220 1 280 1.6 3.2 0.00 0.00 0.00 87 1013.3
20260502111717 1 303 3.2 3.2 0.00 0.00 0.00 89 1013.5
20260502111214 1 255 0.0 0.0 0.00 0.00 0.00 89 1013.2
20260502110712 1 281 1.6 1.6 0.00 0.00 0.00 90 1013.2
20260502110209 1 252 1.6 1.6 0.00 0.00 0.00 90 1013.3
20260502105707 0 252 1.6 1.6 0.00 0.00 0.00 90 1013.1
20260502105203 0 256 0.0 1.6 0.00 0.00 0.00 90 1013.2
20260502104701 1 259 1.6 1.6 0.00 0.00 0.00 89 1013.1
20260502104158 1 251 0.0 0.0 0.00 0.00 0.00 89 1012.9
20260502103655 1 255 0.0 0.0 0.00 0.00 0.00 89 1013.2
20260502103153 1 259 1.6 1.6 0.00 0.00 0.00 88 1013.3
20260502102650 1 258 1.6 1.6 0.00 0.00 0.00 88 1013.0
20260502102147 1 257 1.6 1.6 0.00 0.00 0.00 88 1013.0
20260502101645 1 261 1.6 1.6 0.00 0.00 0.00 88 1013.2
20260502101143 1 271 3.2 3.2 0.00 0.00 0.00 88 1012.9
20260502100641 1 258 1.6 1.6 0.00 0.00 0.00 89 1013.2
20260502100139 1 265 1.6 1.6 0.00 0.00 0.00 88 1013.1
20260502091113 1 247 0.0 1.6 0.00 0.00 0.00 88 1013.0
20260502090610 1 249 0.0 0.0 0.00 0.00 0.00 87 1013.0
20260502090107 1 258 4.8 4.8 0.00 0.00 0.00 88 1012.9
20260502071504 2 252 0.0 1.6 0.00 0.00 0.00 88 1012.8
20260502071003 3 251 0.0 0.0 0.00 0.00 0.00 88 1012.9
20260502070500 3 272 3.2 3.2 0.00 0.00 0.00 88 1013.1
20260502065958 3 257 1.6 1.6 0.00 0.00 0.00 88 1012.9
20260502065456 3 262 3.2 3.2 0.00 0.00 0.00 88 1013.2
20260502064954 3 260 4.8 4.8 0.00 0.00 0.00 89 1013.2
20260502064452 3 261 3.2 4.8 0.00 0.00 0.00 92 1013.2
20260502063949 2 256 3.2 3.2 0.00 0.00 0.00 97 1013.1
20260502063447 2 269 3.2 3.2 0.00 0.00 0.00 99 1013.0
20260502062944 2 252 1.6 3.2 0.00 0.00 0.00 99 1013.0
20260502062441 2 222 1.6 3.2 0.00 0.00 0.00 99 1013.0
20260502061940 2 249 1.6 1.6 0.00 0.00 0.00 99 1013.1
20260502061437 2 270 1.6 1.6 0.00 0.00 0.00 99 1013.2
20260502060933 2 256 1.6 1.6 0.00 0.00 0.00 99 1013.3
20260502060428 2 242 1.6 1.6 0.00 0.00 0.00 99 1013.1
20260502055925 2 253 0.0 1.6 0.00 0.00 0.00 99 1013.2
20260502055424 2 248 0.0 1.6 0.00 0.00 0.00 99 1013.3
20260502054923 3 241 0.0 0.0 0.00 0.00 0.00 99 1013.2
20260502054420 3 228 0.0 0.0 0.00 0.00 0.00 99 1013.3
20260502053918 3 232 1.6 1.6 0.00 0.00 0.00 99 1013.3
20260502053415 3 252 1.6 1.6 0.00 0.00 0.00 99 1013.5
20260502052912 3 245 0.0 0.0 0.00 0.00 0.00 99 1013.6
20260502052411 3 242 0.0 0.0 0.00 0.00 0.00 99 1013.5
20260502051908 3 243 0.0 0.0 0.00 0.00 0.00 99 1013.3
20260502051406 3 242 0.0 0.0 0.00 0.00 0.00 99 1013.3
20260502050903 3 243 0.0 0.0 0.00 0.00 0.00 99 1013.5
20260502050359 3 239 0.0 0.0 0.00 0.00 0.00 99 1013.3
20260502045856 3 239 0.0 0.0 0.00 0.00 0.00 99 1013.3
20260502045353 3 238 0.0 0.0 0.00 0.00 0.00 99 1013.2
20260502044850 2 240 0.0 0.0 0.00 0.00 0.00 99 1013.5
20260502044346 2 236 0.0 0.0 0.00 0.00 0.00 99 1013.5
20260502043843 2 237 0.0 0.0 0.00 0.00 0.00 99 1013.5
20260502043341 2 255 0.0 0.0 0.00 0.00 0.00 99 1013.5
20260502042840 2 248 0.0 0.0 0.00 0.00 0.00 99 1013.2
20260502042338 2 253 0.0 0.0 0.00 0.00 0.00 99 1013.3
20260502041835 2 239 0.0 0.0 0.00 0.00 0.00 99 1013.2
20260502041332 2 239 0.0 0.0 0.00 0.00 0.00 99 1013.3
20260502040829 2 238 0.0 0.0 0.00 0.00 0.00 99 1013.0
20260502040326 2 237 0.0 0.0 0.00 0.00 0.00 99 1013.2
20260502035822 2 240 0.0 0.0 0.00 0.33 0.33 99 1013.1
20260502035319 2 241 0.0 0.0 0.00 0.33 0.33 99 1013.3
20260502034816 2 237 0.0 0.0 0.00 0.33 0.33 99 1013.2
20260502034315 2 237 0.0 0.0 0.00 0.33 0.33 99 1013.2
20260502033813 2 236 0.0 0.0 0.00 0.33 0.33 99 1013.2
20260502033310 2 234 0.0 0.0 0.00 0.33 0.33 99 1013.1
20260502032807 2 234 0.0 0.0 0.00 0.33 0.33 99 1013.3
20260502032305 2 234 0.0 0.0 0.00 0.33 0.33 99 1013.6
20260502031800 3 234 0.0 0.0 0.00 0.33 0.33 99 1013.5
20260502031258 3 234 0.0 0.0 0.00 0.33 0.33 99 1013.6
20260502030757 3 234 0.0 0.0 0.00 0.33 0.33 99 1013.7
20260502030254 3 233 0.0 0.0 0.00 0.33 0.33 99 1013.5
20260502025751 3 239 0.0 0.0 0.00 0.33 0.33 99 1013.2
20260502025249 3 240 0.0 0.0 0.00 0.33 0.33 99 1013.2
20260502024747 4 233 0.0 0.0 0.00 0.33 0.33 99 1013.6
20260502024244 4 240 0.0 0.0 0.00 0.33 0.33 99 1013.5
20260502023742 4 251 1.6 1.6 0.00 0.33 0.33 99 1013.6
20260502023240 4 252 0.0 1.6 0.00 0.33 0.33 99 1013.5
20260502022737 4 237 0.0 0.0 0.00 0.33 0.33 99 1013.2
20260502022233 4 233 0.0 1.6 0.00 0.33 0.33 99 1013.5
20260502021730 4 237 0.0 0.0 0.00 0.33 0.33 98 1013.2
20260502021228 4 237 0.0 0.0 0.00 0.33 0.33 98 1013.0
20260502020725 4 228 0.0 1.6 0.00 0.33 0.33 98 1013.2
20260502020222 4 237 0.0 0.0 0.00 0.33 0.33 98 1013.1
20260502015720 5 236 0.0 0.0 0.00 0.33 0.33 97 1012.8
20260502015216 5 240 0.0 0.0 0.00 0.33 0.33 97 1012.7
20260502014714 5 239 0.0 0.0 0.18 0.33 0.33 97 1012.8
20260502014211 5 237 0.0 0.0 0.18 0.33 0.33 96 1012.9
20260502013707 5 247 0.0 0.0 0.18 0.33 0.33 96 1012.7
20260502013202 5 241 0.0 0.0 0.00 0.30 0.30 96 1012.6
20260502012659 5 237 0.0 0.0 0.00 0.30 0.30 95 1012.6
20260502012157 5 243 0.0 0.0 0.00 0.30 0.30 95 1012.5
20260502011654 5 243 0.0 0.0 0.00 0.30 0.30 94 1012.3
20260502011149 5 243 0.0 0.0 0.00 0.30 0.30 93 1012.2
20260502010648 5 247 0.0 0.0 0.00 0.30 0.30 92 1012.0
20260502010143 5 270 1.6 1.6 0.00 0.30 0.30 91 1012.0
20260502005641 5 45 1.6 3.2 0.00 0.30 0.30 89 1011.9
20260502005139 6 309 3.2 3.2 0.00 0.30 0.30 84 1012.5
20260502004634 6 11 4.8 4.8 0.00 0.30 0.30 82 1012.3
20260502004131 6 309 3.2 3.2 0.00 0.30 0.30 83 1012.0
20260502003629 6 276 1.6 1.6 0.00 0.30 0.30 83 1012.4
20260502003126 6 263 0.0 1.6 0.00 0.30 0.30 84 1012.2
20260502002622 6 246 0.0 1.6 0.00 0.30 0.30 84 1012.0
20260502002120 6 264 0.0 1.6 0.00 0.30 0.30 83 1012.1
20260502001617 6 258 1.6 1.6 0.00 0.30 0.30 83 1012.2
20260502001114 6 287 1.6 1.6 0.00 0.30 0.30 82 1011.8
20260502000613 6 340 1.6 1.6 0.00 0.30 0.30 84 1011.9
20260502000110 6 271 1.6 1.6 0.00 0.30 0.30 83 1011.8
20260501235605 7 341 3.2 3.2 0.00 0.30 0.30 83 1011.6
20260501235102 7 255 3.2 3.2 0.00 0.30 0.30 83 1011.5
20260501234557 7 259 0.0 1.6 0.00 0.30 0.30 83 1011.4
20260501234055 7 272 0.0 0.0 0.00 0.30 0.30 80 1011.1